Location: Gro�wechsungen
(51.4926°N, 10.6901°E)
Time: 18:57:30
(UTC+00:00)

Lacrosse 5 rocket - Pass Details

Date: 18 September 2020
Orbit: 461 x 635 km, 57.0° (Epoch: 21 October)

Event Time Altitude Azimuth Distance (km) Brightness Sun altitude
Rises 18:07:24 0° 249° (WSW) 2,725 5.9 -7.5°
Reaches altitude 10° 18:09:35 10° 252° (WSW) 1,862 5.1 -7.9°
Maximum altitude 18:13:49 68° 335° (NNW) 637 1.8 -8.5°
Drops below altitude 10° 18:18:18 10° 59° (ENE) 1,969 3.7 -9.2°
Enters shadow 18:19:36 - 61° (ENE) 2,478 4.2 -9.4°
